Weather History for KBQP - November, 2013

Change the Weather History Date:

Saturday, November 30, 2013

  Actual Average (KMLU) Record (KMLU)
Temperature  
Mean Temperature 47 °F 52 °F  
Max Temperature 65 °F 63 °F 83 °F (1933)
Min Temperature 29 °F 40 °F 21 °F (1976)
Degree Days  
Heating Degree Days 18 14  
Month to date heating degree days 282  
Since 1 July heating degree days 372  
Cooling Degree Days 0 0  
Month to date cooling degree days 24  
Year to date cooling degree days 2508  
Moisture  
Dew Point 32 °F    
Average Humidity 63    
Maximum Humidity 94    
Minimum Humidity 17    
Precipitation  
Precipitation 0.00 in 0.19 in 2.28 in (1996)
Month to date precipitation 4.84  
Year to date precipitation 48.73  
Snow  
Snow 0.00 in - - ()
Month to date snowfall  
Since 1 July snowfall  
Since 1 September snowfall  
Snow Depth -    
Sea Level Pressure  
Sea Level Pressure 30.35 in    
Wind  
Wind Speed 0 mph (North)    
Max Wind Speed 0 mph    
Max Gust Speed -    
Visibility 10 miles    
Events      
T = Trace of Precipitation, MM = Missing Value Source: NWS Daily Summary

Daily Weather History Graph

Daily Weather History Graph

Search for Another Location

Airport or City:

Trip Planner

Search our weather history database for the weather conditions in past years. The results will help you decide how hot, cold, wet, or windy it might be!

Date:

Astronomy

Nov. 30, 2013 Rise Set
Actual Time 6:51 AM CST 5:01 PM CST
Civil Twilight 6:24 AM CST 5:28 PM CST
Nautical Twilight 5:53 AM CST 5:58 PM CST
Astronomical Twilight 5:24 AM CST 6:28 PM CST
Moon 4:09 AM CST (11/30) 3:19 PM CST (11/30)
Length of Visible Light 11h 03m
Length of Day
10h 09m
Waning Crescent, 7% of the Moon is Illuminated
Nov 30
Waning Crescent
Dec 2
New
Dec 9
First Quarter
Dec 17
Full
Dec 25
Last Quarter

Hourly Weather History & Observations

Time (CST) Temp. Dew Point Humidity Pressure Visibility Wind Dir Wind Speed Gust Speed Precip Events Conditions
12:15 AM 33.4 °F 31.8 °F 94% 30.43 in 10.0 mi Calm Calm - N/A   Clear
12:35 AM 32.9 °F 30.9 °F 92% 30.42 in 10.0 mi Calm Calm - N/A   Clear
12:55 AM 32.7 °F 31.1 °F 94% 30.41 in 10.0 mi Calm Calm - N/A   Clear
1:15 AM 33.1 °F 31.3 °F 93% 30.42 in 10.0 mi Calm Calm - N/A   Clear
1:35 AM 33.1 °F 31.3 °F 93% 30.41 in 10.0 mi Calm Calm - N/A   Clear
1:55 AM 32.9 °F 31.1 °F 93% 30.41 in 10.0 mi Calm Calm - N/A   Clear
2:15 AM 32.4 °F 30.6 °F 93% 30.42 in 10.0 mi Calm Calm - N/A   Clear
2:35 AM 32.4 °F 30.9 °F 94% 30.42 in 10.0 mi Calm Calm - N/A   Clear
2:55 AM 31.6 °F 29.5 °F 92% 30.42 in 3.0 mi Calm Calm - N/A   Clear
3:15 AM 30.7 °F 28.6 °F 92% 30.42 in 7.0 mi Calm Calm - N/A   Clear
3:35 AM 31.3 °F 29.1 °F 92% 30.42 in 7.0 mi Calm Calm - N/A   Clear
3:55 AM 30.9 °F 28.6 °F 91% 30.42 in 10.0 mi Calm Calm - N/A   Clear
4:15 AM 30.6 °F 28.6 °F 92% 30.42 in 7.0 mi Calm Calm - N/A   Clear
4:35 AM 29.7 °F 27.5 °F 92% 30.42 in 7.0 mi Calm Calm - N/A   Clear
4:55 AM 30.2 °F 27.5 °F 90% 30.43 in 10.0 mi Calm Calm - N/A   Clear
5:15 AM 30.6 °F 28.4 °F 92% 30.43 in 10.0 mi Calm Calm - N/A   Clear
5:35 AM 30.6 °F 28.2 °F 91% 30.43 in 10.0 mi Calm Calm - N/A   Clear
5:55 AM 30.9 °F 28.4 °F 90% 30.43 in 10.0 mi Calm Calm - N/A   Clear
6:15 AM 30.0 °F 27.5 °F 90% 30.43 in 10.0 mi Calm Calm - N/A   Clear
6:35 AM 30.4 °F 28.0 °F 91% 30.43 in 10.0 mi Calm Calm - N/A   Clear
6:55 AM 29.5 °F 27.1 °F 91% 30.44 in 10.0 mi Calm Calm - N/A   Clear
7:15 AM 30.4 °F 28.2 °F 92% 30.44 in 10.0 mi Calm Calm - N/A   Clear
7:35 AM 32.0 °F 29.8 °F 92% 30.44 in 10.0 mi Calm Calm - N/A   Clear
7:55 AM 33.4 °F 31.8 °F 94% 30.44 in 10.0 mi Calm Calm - N/A   Clear
8:15 AM 36.1 °F 33.8 °F 91% 30.45 in 10.0 mi Calm Calm - N/A   Clear
8:35 AM 41.9 °F 37.2 °F 83% 30.45 in 10.0 mi Calm Calm - N/A   Clear
8:55 AM 45.1 °F 37.4 °F 74% 30.46 in 10.0 mi Calm Calm - N/A   Clear
9:15 AM 47.8 °F 36.1 °F 64% 30.46 in 10.0 mi Calm Calm - N/A   Clear
9:35 AM 50.2 °F 35.4 °F 57% 30.46 in 10.0 mi Calm Calm - N/A   Clear
9:55 AM 52.7 °F 34.2 °F 49% 30.45 in 10.0 mi Calm Calm - N/A   Clear
10:15 AM 54.7 °F 33.3 °F 44% 30.45 in 10.0 mi Calm Calm - N/A   Clear
10:35 AM 56.8 °F 33.4 °F 41% 30.44 in 10.0 mi Calm Calm - N/A   Clear
10:55 AM 58.1 °F 32.9 °F 39% 30.43 in 10.0 mi Calm Calm - N/A   Clear
11:15 AM 60.3 °F 30.7 °F 33% 30.42 in 10.0 mi Calm Calm - N/A   Clear
11:35 AM 61.0 °F 29.5 °F 30% 30.40 in 10.0 mi Calm Calm - N/A   Clear
11:55 AM 61.0 °F 31.1 °F 32% 30.39 in 10.0 mi Calm Calm - N/A   Clear
12:15 PM 62.2 °F 31.1 °F 31% 30.38 in 10.0 mi Calm Calm - N/A   Clear
12:35 PM 63.0 °F 29.8 °F 29% 30.37 in 10.0 mi Calm Calm - N/A   Clear
12:55 PM 63.5 °F 29.3 °F 28% 30.35 in 10.0 mi Calm Calm - N/A   Clear
1:15 PM 63.0 °F 29.3 °F 28% 30.34 in 10.0 mi Calm Calm - N/A   Clear
1:35 PM 63.3 °F 29.5 °F 28% 30.33 in 10.0 mi Calm Calm - N/A   Clear
1:55 PM 64.4 °F 26.1 °F 23% 30.32 in 10.0 mi Calm Calm - N/A   Clear
2:15 PM 64.4 °F 27.9 °F 25% 30.31 in 10.0 mi Calm Calm - N/A   Clear
2:35 PM 65.1 °F 19.6 °F 17% 30.30 in 10.0 mi Calm Calm - N/A   Clear
2:55 PM 64.9 °F 20.3 °F 18% 30.29 in 10.0 mi Calm Calm - N/A   Clear
3:15 PM 64.6 °F 25.5 °F 23% 30.28 in 10.0 mi Calm Calm - N/A   Clear
3:35 PM 63.7 °F 25.9 °F 24% 30.28 in 10.0 mi Calm Calm - N/A   Clear
3:55 PM 63.5 °F 25.9 °F 24% 30.28 in 10.0 mi Calm Calm - N/A   Clear
4:15 PM 62.4 °F 28.9 °F 28% 30.28 in 10.0 mi Calm Calm - N/A   Clear
4:35 PM 60.8 °F 31.5 °F 33% 30.27 in 10.0 mi Calm Calm - N/A   Clear
4:55 PM 56.5 °F 33.6 °F 42% 30.27 in 10.0 mi Calm Calm - N/A   Clear
5:15 PM 52.3 °F 35.8 °F 53% 30.26 in 10.0 mi Calm Calm - N/A   Clear
5:35 PM 49.5 °F 39.6 °F 69% 30.26 in 10.0 mi Calm Calm - N/A   Clear
5:55 PM 47.1 °F 37.8 °F 70% 30.26 in 10.0 mi Calm Calm - N/A   Clear
6:15 PM 50.0 °F 36.7 °F 60% 30.26 in 10.0 mi Calm Calm - N/A   Clear
6:35 PM 46.6 °F 39.4 °F 76% 30.27 in 10.0 mi Calm Calm - N/A   Clear
6:55 PM 46.6 °F 39.4 °F 76% 30.27 in 10.0 mi Calm Calm - N/A   Clear
7:15 PM 46.2 °F 38.1 °F 73% 30.26 in 10.0 mi Calm Calm - N/A   Clear
7:35 PM 51.1 °F 34.7 °F 54% 30.26 in 10.0 mi Calm Calm - N/A   Clear
7:55 PM 52.2 °F 33.4 °F 49% 30.26 in 10.0 mi Calm Calm - N/A   Clear
8:15 PM 50.0 °F 34.9 °F 56% 30.27 in 10.0 mi Calm Calm - N/A   Clear
8:35 PM 49.8 °F 34.3 °F 55% 30.26 in 10.0 mi Calm Calm - N/A   Clear
8:55 PM 52.0 °F 32.4 °F 47% 30.25 in 10.0 mi Calm Calm - N/A   Clear
9:15 PM 50.4 °F 33.3 °F 52% 30.25 in 10.0 mi Calm Calm - N/A   Clear
9:35 PM 45.1 °F 36.5 °F 72% 30.25 in 10.0 mi Calm Calm - N/A   Clear
9:55 PM 48.2 °F 34.9 °F 60% 30.26 in 10.0 mi Calm Calm - N/A   Clear
10:15 PM 45.9 °F 35.8 °F 68% 30.26 in 10.0 mi Calm Calm - N/A   Clear
10:35 PM 45.7 °F 36.5 °F 70% 30.26 in 10.0 mi Calm Calm - N/A   Clear
10:55 PM 46.8 °F 35.2 °F 64% 30.26 in 10.0 mi Calm Calm - N/A   Mostly Cloudy
11:15 PM 49.8 °F 33.8 °F 54% 30.26 in 10.0 mi Calm Calm - N/A   Overcast
11:35 PM 51.4 °F 32.4 °F 48% 30.25 in 10.0 mi Calm Calm - N/A   Overcast
11:55 PM 52.2 °F 32.0 °F 46% 30.24 in 10.0 mi Calm Calm - N/A   Overcast